CSS (MENGTIAN)

Last updated on Tue Jul 01 2025 00:02:11 GMT+0000 (Coordinated Universal Time)

1 54216U 22143A 25181.57963441 .00020703 00000+0 25681-3 0 9992 2 54216 41.4645 299.3448 0005591 223.3445 136.6954 15.59519001151171
UTC large
Height (km)
Speed (km/s)
/
Latitude / Longitude
Inclination (degrees)
Orbital Period (minutes)
Azimuth
Elevation
Range (km)
Doppler Factor

Next 0 passes for location: London (51.5072 / 0.1276)

Sorry there are no passes over London.